When you browse on this site, cookies collect data to enhance your experience and personalize the content and advertising you see.
Visit our Privacy Policy to learn more. By continuing to use the site, you agree to this use of cookies and data.
  • In Lithuania
  • List of Countries
  • For 7 days
  • Water Temperature
  • Weather Map
  • Weather Widgets
  • user-avatar
    Login

    Hourly Weather Litomerice

    Today, 14 December, Saturday

    Time Temperature Precipitation Wind Pressure Humidity
    00:00 +1°C° 0 mm 4 mps 722 mmHg 90%
    01:00 +1°C° 0 mm 4 mps 722 mmHg 89%
    02:00 +1°C° 0 mm 4 mps 722 mmHg 89%
    03:00 +1°C° 0 mm 4 mps 723 mmHg 90%
    04:00 +2°C° 0 mm 3 mps 723 mmHg 91%
    05:00 +1°C° 0 mm 4 mps 723 mmHg 90%
    06:00 +1°C° 0 mm 4 mps 723 mmHg 90%
    07:00 +1°C° 0 mm 4 mps 724 mmHg 89%
    08:00 +1°C° 0.1 mm 5 mps 723 mmHg 88%
    09:00 +1°C° 0.1 mm 6 mps 723 mmHg 86%
    10:00 +1°C° 0.1 mm 6 mps 723 mmHg 85%
    11:00 +2°C° 0.2 mm 7 mps 723 mmHg 85%
    12:00 +3°C° 0.2 mm 7 mps 724 mmHg 85%
    13:00 +4°C° 0.2 mm 7 mps 724 mmHg 84%
    14:00 +4°C° 0.1 mm 7 mps 725 mmHg 83%
    15:00 +3°C° 0.1 mm 6 mps 727 mmHg 81%
    16:00 +3°C° 0.1 mm 5 mps 728 mmHg 80%
    17:00 +2°C° 0.1 mm 5 mps 729 mmHg 78%
    18:00 +2°C° 0.1 mm 5 mps 730 mmHg 76%
    19:00 +2°C° 0.1 mm 5 mps 731 mmHg 74%
    20:00 +2°C° 0 mm 5 mps 732 mmHg 78%
    21:00 +3°C° 0 mm 4 mps 732 mmHg 82%
    22:00 +3°C° 0 mm 4 mps 733 mmHg 86%
    23:00 +3°C° 0 mm 4 mps 733 mmHg 85%

    Tomorrow, 15 December, Sunday

    Time Temperature Precipitation Wind Pressure Humidity
    00:00 +4°C° 0 mm 3 mps 733 mmHg 85%
    01:00 +4°C° 0 mm 3 mps 734 mmHg 85%
    02:00 +3°C° 0 mm 3 mps 734 mmHg 86%
    03:00 +3°C° 0 mm 3 mps 734 mmHg 86%
    04:00 +3°C° 0 mm 3 mps 734 mmHg 87%
    05:00 +3°C° 0.1 mm 3 mps 734 mmHg 88%
    06:00 +3°C° 0.1 mm 3 mps 734 mmHg 89%
    07:00 +4°C° 0.1 mm 3 mps 734 mmHg 90%
    08:00 +5°C° 0.3 mm 4 mps 734 mmHg 88%
    09:00 +6°C° 0.3 mm 5 mps 734 mmHg 86%
    10:00 +7°C° 0.3 mm 6 mps 733 mmHg 84%
    11:00 +7°C° 0 mm 5 mps 734 mmHg 82%
    12:00 +8°C° 0 mm 5 mps 734 mmHg 81%
    13:00 +9°C° 0 mm 5 mps 734 mmHg 79%
    14:00 +8°C° 0.2 mm 4 mps 735 mmHg 81%
    15:00 +9°C° 0.2 mm 3 mps 736 mmHg 83%
    16:00 +8°C° 0.2 mm 3 mps 737 mmHg 84%
    17:00 +8°C° 0 mm 2 mps 737 mmHg 83%
    18:00 +7°C° 0 mm 2 mps 738 mmHg 83%
    19:00 +7°C° 0 mm 2 mps 739 mmHg 82%
    20:00 +7°C° 0 mm 2 mps 739 mmHg 82%
    21:00 +7°C° 0 mm 2 mps 739 mmHg 82%
    22:00 +7°C° 0 mm 2 mps 740 mmHg 82%
    23:00 +7°C° 0.1 mm 2 mps 740 mmHg 85%

    Day after tomorrow, 16 December, Monday

    Time Temperature Precipitation Wind Pressure Humidity
    00:00 +7°C° 0.1 mm 2 mps 740 mmHg 87%
    01:00 +8°C° 0.1 mm 1 mps 740 mmHg 90%
    02:00 +8°C° 0.1 mm 1 mps 740 mmHg 91%
    03:00 +8°C° 0.1 mm 1 mps 740 mmHg 92%
    04:00 +8°C° 0.1 mm 1 mps 740 mmHg 93%
    05:00 +8°C° 0.1 mm 1 mps 740 mmHg 93%
    06:00 +8°C° 0.1 mm 1 mps 740 mmHg 93%
    07:00 +8°C° 0.1 mm 1 mps 740 mmHg 92%
    08:00 +7°C° 0 mm 2 mps 740 mmHg 90%
    09:00 +7°C° 0 mm 2 mps 740 mmHg 87%
    10:00 +7°C° 0 mm 2 mps 740 mmHg 85%
    11:00 +7°C° 0 mm 3 mps 740 mmHg 81%
    12:00 +8°C° 0 mm 3 mps 740 mmHg 77%
    13:00 +8°C° 0 mm 3 mps 740 mmHg 74%
    14:00 +7°C° 0 mm 3 mps 739 mmHg 78%
    15:00 +7°C° 0 mm 3 mps 739 mmHg 82%
    16:00 +5°C° 0 mm 4 mps 739 mmHg 86%
    17:00 +5°C° 0 mm 3 mps 739 mmHg 87%
    18:00 +5°C° 0 mm 3 mps 739 mmHg 88%
    19:00 +5°C° 0 mm 3 mps 739 mmHg 89%
    20:00 +5°C° 0 mm 3 mps 739 mmHg 90%
    21:00 +5°C° 0 mm 3 mps 738 mmHg 91%
    22:00 +5°C° 0 mm 2 mps 738 mmHg 93%
    23:00 +5°C° 0 mm 2 mps 738 mmHg 94%

    17 December, Tuesday

    Time Temperature Precipitation Wind Pressure Humidity
    00:00 +5°C° 0 mm 2 mps 738 mmHg 95%
    01:00 +4°C° 0 mm 2 mps 737 mmHg 96%
    02:00 +4°C° 0 mm 2 mps 737 mmHg 95%
    03:00 +5°C° 0 mm 2 mps 737 mmHg 95%
    04:00 +5°C° 0 mm 2 mps 737 mmHg 95%
    05:00 +5°C° 0 mm 2 mps 737 mmHg 95%
    06:00 +5°C° 0 mm 2 mps 737 mmHg 95%
    07:00 +5°C° 0 mm 2 mps 737 mmHg 95%
    08:00 +6°C° 0 mm 1 mps 738 mmHg 94%
    09:00 +6°C° 0 mm 1 mps 738 mmHg 93%
    10:00 +7°C° 0 mm 1 mps 738 mmHg 91%
    11:00 +7°C° 0 mm 1 mps 738 mmHg 89%
    12:00 +8°C° 0 mm 1 mps 738 mmHg 87%
    13:00 +8°C° 0 mm 1 mps 738 mmHg 84%
    14:00 +7°C° 0 mm 1 mps 738 mmHg 86%
    15:00 +7°C° 0 mm 1 mps 738 mmHg 89%
    16:00 +7°C° 0 mm 1 mps 738 mmHg 91%
    17:00 +6°C° 0 mm 1 mps 738 mmHg 91%
    18:00 +6°C° 0 mm 1 mps 738 mmHg 92%
    19:00 +6°C° 0 mm 1 mps 739 mmHg 92%
    20:00 +5°C° 0 mm 1 mps 739 mmHg 93%
    21:00 +5°C° 0 mm 1 mps 739 mmHg 93%
    22:00 +4°C° 0 mm 0 mps 739 mmHg 93%
    23:00 +5°C° 0 mm 1 mps 739 mmHg 93%

    18 December, Wednesday

    Time Temperature Precipitation Wind Pressure Humidity
    00:00 +5°C° 0 mm 1 mps 739 mmHg 93%
    01:00 +5°C° 0 mm 1 mps 739 mmHg 93%
    02:00 +5°C° 0 mm 1 mps 739 mmHg 93%
    03:00 +5°C° 0 mm 1 mps 739 mmHg 94%
    04:00 +4°C° 0 mm 1 mps 739 mmHg 94%
    05:00 +4°C° 0 mm 1 mps 739 mmHg 94%
    06:00 +4°C° 0 mm 1 mps 739 mmHg 93%
    07:00 +4°C° 0 mm 1 mps 740 mmHg 93%
    08:00 +5°C° 0 mm 1 mps 740 mmHg 91%
    09:00 +5°C° 0 mm 1 mps 740 mmHg 89%
    10:00 +6°C° 0 mm 1 mps 741 mmHg 87%
    11:00 +7°C° 0 mm 1 mps 741 mmHg 83%
    12:00 +8°C° 0 mm 1 mps 741 mmHg 80%
    13:00 +7°C° 0 mm 0 mps 741 mmHg 76%
    14:00 +7°C° 0 mm 0 mps 741 mmHg 80%
    15:00 +6°C° 0 mm 0 mps 741 mmHg 83%
    16:00 +5°C° 0 mm 0 mps 741 mmHg 87%
    17:00 +5°C° 0 mm 0 mps 741 mmHg 88%
    18:00 +5°C° 0 mm 0 mps 741 mmHg 89%
    19:00 +5°C° 0 mm 0 mps 741 mmHg 89%
    20:00 +4°C° 0 mm 0 mps 741 mmHg 90%
    21:00 +4°C° 0 mm 0 mps 741 mmHg 90%
    22:00 +4°C° 0 mm 0 mps 741 mmHg 91%
    23:00 +4°C° 0 mm 0 mps 741 mmHg 91%

    19 December, Thursday

    Time Temperature Precipitation Wind Pressure Humidity
    00:00 +4°C° 0 mm 0 mps 741 mmHg 92%
    01:00 +4°C° 0 mm 0 mps 741 mmHg 92%
    02:00 +4°C° 0 mm 0 mps 740 mmHg 92%
    03:00 +4°C° 0 mm 0 mps 740 mmHg 93%
    04:00 +4°C° 0 mm 0 mps 740 mmHg 93%
    05:00 +5°C° 0 mm 0 mps 740 mmHg 94%
    06:00 +5°C° 0 mm 0 mps 740 mmHg 94%
    07:00 +5°C° 0 mm 0 mps 739 mmHg 94%
    08:00 +5°C° 0 mm 0 mps 739 mmHg 94%
    09:00 +6°C° 0 mm 0 mps 739 mmHg 93%
    10:00 +6°C° 0 mm 0 mps 739 mmHg 93%
    11:00 +6°C° 0 mm 0 mps 739 mmHg 92%
    12:00 +6°C° 0 mm 0 mps 738 mmHg 92%
    13:00 +7°C° 0 mm 0 mps 738 mmHg 91%
    14:00 +8°C° 0 mm 1 mps 737 mmHg 92%
    15:00 +8°C° 0 mm 1 mps 737 mmHg 93%
    16:00 +7°C° 0 mm 1 mps 736 mmHg 94%
    17:00 +8°C° 0 mm 1 mps 736 mmHg 94%
    18:00 +7°C° 0 mm 2 mps 735 mmHg 94%
    19:00 +7°C° 0 mm 2 mps 735 mmHg 94%
    20:00 +7°C° 0 mm 2 mps 735 mmHg 94%
    21:00 +7°C° 0 mm 2 mps 734 mmHg 93%
    22:00 +7°C° 0 mm 2 mps 734 mmHg 93%
    23:00 +7°C° 0 mm 2 mps 734 mmHg 93%
    Show more